H1 CPF 2 NER 2021 3 7 9 066 01 glonass122 H2 1004103 9122 37139 2021 3 7 0 0 0 2021 3 10 23 45 0 900 1 1 0 0 0 1 H9 10 0 59280 0.00000 0 7268763.056 18335269.670 -16122954.053 10 0 59280 900.00000 0 7353239.031 20173960.692 -13691100.261 10 0 59280 1800.00000 0 7545901.577 21686888.696 -10991987.443 10 0 59280 2700.00000 0 7798571.808 22839504.762 -8078087.383 10 0 59280 3600.00000 0 8058421.213 23609400.177 -5006199.586 10 0 59280 4500.00000 0 8270431.859 23987134.999 -1836331.819 10 0 59280 5400.00000 0 8379967.229 23976532.571 1369493.192 10 0 59280 6300.00000 0 8335341.471 23594425.124 4548479.504 10 0 59280 7200.00000 0 8090274.115 22869860.113 7638320.749 10 0 59280 8100.00000 0 7606121.784 21842800.982 10578455.823 10 0 59280 9000.00000 0 6853788.062 20562378.651 13311289.267 10 0 59280 9900.00000 0 5815226.991 19084770.131 15783348.870 10 0 59280 10800.00000 0 4484473.836 17470797.167 17946354.909 10 0 59280 11700.00000 0 2868157.962 15783349.840 19758177.875 10 0 59280 12600.00000 0 985475.848 14084747.280 21183664.628 10 0 59280 13500.00000 0 -1132373.854 12434149.528 22195316.606 10 0 59280 14400.00000 0 -3443267.824 10885131.296 22773807.589 10 0 59280 15300.00000 0 -5895700.633 9483520.260 22908332.524 10 0 59280 16200.00000 0 -8430725.283 8265589.878 22596783.000 10 0 59280 17100.00000 0 -10984208.402 7256680.449 21845748.804 10 0 59280 18000.00000 0 -13489304.096 6470303.059 20670348.631 10 0 59280 18900.00000 0 -15879042.449 5907759.892 19093896.372 10 0 59280 19800.00000 0 -18088924.920 5558292.292 17147412.338 10 0 59280 20700.00000 0 -20059419.627 5399745.925 14868991.459 10 0 59280 21600.00000 0 -21738254.781 5399720.959 12303042.657 10 0 59280 22500.00000 0 -23082417.766 5517155.604 9499415.478 10 0 59280 23400.00000 0 -24059780.021 5704274.182 6512431.559 10 0 59280 24300.00000 0 -24650283.849 5908816.562 3399839.675 10 0 59280 25200.00000 0 -24846645.271 6076455.175 221713.791 10 0 59280 26100.00000 0 -24654546.808 6153298.872 -2960685.773 10 0 59280 27000.00000 0 -24092314.604 6088380.045 -6086067.946 10 0 59280 27900.00000 0 -23190094.850 5836022.596 -9094263.213 10 0 59280 28800.00000 0 -21988564.280 5357993.530 -11927352.821 10 0 59280 29700.00000 0 -20537227.888 4625349.805 -14530755.762 10 0 59280 30600.00000 0 -18892373.195 3619904.259 -16854255.199 10 0 59280 31500.00000 0 -17114763.973 2335249.665 -18852946.811 10 0 59280 32400.00000 0 -15267166.598 777297.302 -20488092.853 10 0 59280 33300.00000 0 -13411809.026 -1035694.381 -21727866.867 10 0 59280 34200.00000 0 -11607875.364 -3073605.170 -22547975.384 10 0 59280 35100.00000 0 -9909138.055 -5295436.300 -22932144.604 10 0 59280 36000.00000 0 -8361824.723 -7650755.108 -22872461.753 10 0 59280 36900.00000 0 -7002808.107 -10081545.711 -22369562.763 10 0 59280 37800.00000 0 -5858195.030 -12524393.257 -21432660.185 10 0 59280 38700.00000 0 -4942374.792 -14912914.806 -20079407.719 10 0 59280 39600.00000 0 -4257569.123 -17180338.413 -18335600.537 10 0 59280 40500.00000 0 -3793905.255 -19262124.566 -16234713.693 10 0 59280 41400.00000 0 -3530011.936 -21098520.819 -13817284.194 10 0 59280 42300.00000 0 -3434115.950 -22636941.551 -11130145.981 10 0 59280 43200.00000 0 -3465594.789 -23834070.972 -8225530.606 10 0 59280 44100.00000 0 -3576920.872 -24657597.922 -5160050.028 10 0 59280 45000.00000 0 -3715914.754 -25087505.967 -1993581.445 10 0 59280 45900.00000 0 -3828210.334 -25116861.006 1211922.959 10 0 59280 46800.00000 0 -3859824.815 -24752060.260 4393675.996 10 0 59280 47700.00000 0 -3759720.718 -24012530.101 7489317.878 10 0 59280 48600.00000 0 -3482247.052 -22929884.742 10438172.924 10 0 59280 49500.00000 0 -2989351.747 -21546581.788 13182472.335 10 0 59280 50400.00000 0 -2252467.596 -19914133.222 15668515.498 10 0 59280 51300.00000 0 -1253988.609 -18090950.023 17847744.130 10 0 59280 52200.00000 0 11727.919 -16139914.624 19677705.984 10 0 59280 53100.00000 0 1537876.862 -14125786.974 21122887.880 10 0 59280 54000.00000 0 3305258.552 -12112556.436 22155401.513 10 0 59280 54900.00000 0 5282866.409 -10160853.127 22755509.339 10 0 59280 55800.00000 0 7428982.176 -8325528.632 22911981.848 10 0 59280 56700.00000 0 9692730.407 -6653507.386 22622281.611 10 0 59280 57600.00000 0 12016024.662 -5181997.244 21892573.346 10 0 59280 58500.00000 0 14335821.822 -3937131.455 20737562.903 10 0 59280 59400.00000 0 16586588.892 -2933095.049 19180171.442 10 0 59280 60300.00000 0 18702878.774 -2171767.727 17251054.006 10 0 59280 61200.00000 0 20621907.880 -1642893.460 14987974.438 10 0 59280 62100.00000 0 22286029.588 -1324765.079 12435050.714 10 0 59280 63000.00000 0 23645002.688 -1185391.047 9641886.704 10 0 59280 63900.00000 0 24657963.204 -1184092.300 6662607.905 10 0 59280 64800.00000 0 25295020.772 -1273459.950 3554819.780 10 0 59280 65700.00000 0 25538416.449 -1401590.657 378508.179 10 0 59280 66600.00000 0 25383196.824 -1514505.902 -2805098.146 10 0 59280 67500.00000 0 24837378.928 -1558654.592 -5934682.765 10 0 59280 68400.00000 0 23921600.813 -1483395.621 -8949994.483 10 0 59280 69300.00000 0 22668273.148 -1243358.275 -11792978.129 10 0 59280 70200.00000 0 21120266.859 -800583.488 -14408864.063 10 0 59280 71100.00000 0 19329190.140 -126357.837 -16747198.009 10 0 59280 72000.00000 0 17353324.353 797335.600 -18762793.688 10 0 59280 72900.00000 0 15255301.836 1976810.285 -20416591.910 10 0 59280 73800.00000 0 13099618.972 3406156.464 -21676411.040 10 0 59280 74700.00000 0 10950084.754 5067232.612 -22517575.063 10 0 59280 75600.00000 0 8867308.071 6930171.849 -22923407.177 10 0 59280 76500.00000 0 6906325.946 8954386.416 -22885578.483 10 0 59280 77400.00000 0 5114470.192 11090032.940 -22404303.341 10 0 59280 78300.00000 0 3529560.956 13279882.159 -21488375.211 10 0 59280 79200.00000 0 2178503.238 15461519.461 -20155039.185 10 0 59280 80100.00000 0 1076346.670 17569787.928 -18429700.314 10 0 59280 81000.00000 0 225850.227 19539374.211 -16345469.818 10 0 59280 81900.00000 0 -382427.229 21307430.187 -13942554.628 10 0 59280 82800.00000 0 -769511.677 22816120.100 -11267499.300 10 0 59280 83700.00000 0 -966897.678 24014984.647 -8372292.940 10 0 59280 84600.00000 0 -1014976.836 24863019.857 -5313357.359 10 0 59280 85500.00000 0 -961077.092 25330379.712 -2150436.234 10 0 59281 0.00000 0 -857196.762 25399627.104 1054591.931 10 0 59281 900.00000 0 -757531.760 25066476.520 4238952.196 10 0 59281 1800.00000 0 -715903.323 24339995.319 7340234.730 10 0 59281 2700.00000 0 -783200.677 23242251.719 10297652.674 10 0 59281 3600.00000 0 -1004949.986 21807425.708 13053267.180 10 0 59281 4500.00000 0 -1419117.849 20080420.062 15553152.343 10 0 59281 5400.00000 0 -2054245.593 18115032.625 17748474.212 10 0 59281 6300.00000 0 -2927996.224 15971769.529 19596460.429 10 0 59281 7200.00000 0 -4046176.962 13715394.753 21061240.126 10 0 59281 8100.00000 0 -5402279.034 11412322.217 22114537.287 10 0 59281 9000.00000 0 -6977553.309 9127962.557 22736204.735 10 0 59281 9900.00000 0 -8741616.869 6924137.635 22914589.794 10 0 59281 10800.00000 0 -10653562.649 4856671.594 22646726.867 10 0 59281 11700.00000 0 -12663523.036 2973258.410 21938355.960 10 0 59281 12600.00000 0 -14714619.336 1311693.027 20803769.914 10 0 59281 13500.00000 0 -16745213.557 -101463.376 19265496.431 10 0 59281 14400.00000 0 -18691367.079 -1251732.448 17353824.019 10 0 59281 15300.00000 0 -20489403.103 -2137051.275 15106183.630 10 0 59281 16200.00000 0 -22078466.538 -2767579.541 12566400.022 10 0 59281 17100.00000 0 -23402976.052 -3164993.894 9783828.725 10 0 59281 18000.00000 0 -24414868.265 -3361302.947 6812396.107 10 0 59281 18900.00000 0 -25075543.392 -3397235.535 3709561.126 10 0 59281 19800.00000 0 -25357434.255 -3320271.704 535218.173 10 0 59281 20700.00000 0 -25245136.276 -3182399.642 -2649438.966 10 0 59281 21600.00000 0 -24736053.955 -3037692.355 -5783071.904 10 0 59281 22500.00000 0 -23840538.818 -2939804.505 -8805351.133 10 0 59281 23400.00000 0 -22581514.134 -2939492.558 -11658088.335 10 0 59281 24300.00000 0 -20993602.040 -3082260.205 -14286328.357 10 0 59281 25200.00000 0 -19121788.346 -3406225.807 -16639382.393 10 0 59281 26100.00000 0 -17019678.585 -3940299.734 -18671784.796 10 0 59281 27000.00000 0 -14747415.029 -4702747.285 -20344157.119 10 0 59281 27900.00000 0 -12369337.842 -5700197.691 -21623964.255 10 0 59281 28800.00000 0 -9951484.148 -6927142.144 -22486148.808 10 0 59281 29700.00000 0 -7559025.455 -8365944.481 -22913631.553 10 0 59281 30600.00000 0 -5253747.046 -9987367.734 -22897667.473 10 0 59281 31500.00000 0 -3091672.100 -11751598.814 -22438048.838 10 0 59281 32400.00000 0 -1120928.215 -13609733.208 -21543148.990 10 0 59281 33300.00000 0 620054.814 -15505662.199 -20229802.978 10 0 59281 34200.00000 0 2103939.757 -17378287.629 -18523023.925 10 0 59281 35100.00000 0 3315409.127 -19163974.591 -16455557.120 10 0 59281 36000.00000 0 4251583.535 -20799141.047 -14067277.082 10 0 59281 36900.00000 0 4921911.013 -22222876.061 -11404436.474 10 0 59281 37800.00000 0 5347529.533 -23379475.581 -8518779.323 10 0 59281 38700.00000 0 5560127.812 -24220786.733 -5466534.595 10 0 59281 39600.00000 0 5600351.581 -24708258.538 -2307309.730 10 0 59281 40500.00000 0 5515823.033 -24814608.749 897093.273 10 0 59281 41400.00000 0 5358858.848 -24525032.555 4083914.101 10 0 59281 42300.00000 0 5183986.187 -23837898.704 7190695.532 10 0 59281 43200.00000 0 5045365.609 -22764901.082 10156541.958 10 0 59281 44100.00000 0 4994234.348 -21330657.981 12923346.733 10 0 59281 45000.00000 0 5076482.619 -19571775.902 15436960.730 10 0 59281 45900.00000 0 5330469.575 -17535418.585 17648276.157 10 0 59281 46800.00000 0 5785174.554 -15277443.718 19514202.118 10 0 59281 47700.00000 0 6458763.912 -12860188.683 20998511.321 10 0 59281 48600.00000 0 7357634.880 -10350001.455 22072541.001 10 0 59281 49500.00000 0 8475976.449 -7814623.083 22715734.984 10 0 59281 50400.00000 0 9795864.343 -5320533.684 22916017.770 10 0 59281 51300.00000 0 11287883.847 -2930374.105 22669995.660 10 0 59281 52200.00000 0 12912251.628 -700550.891 21982983.775 10 0 59281 53100.00000 0 14620386.597 1320876.772 20868861.549 10 0 59281 54000.00000 0 16356861.476 3095942.719 19349762.653 10 0 59281 54900.00000 0 18061651.384 4598082.982 17455608.293 10 0 59281 55800.00000 0 19672584.204 5812958.323 15223495.593 10 0 59281 56700.00000 0 21127890.111 6738760.683 12696954.948 10 0 59281 57600.00000 0 22368744.487 7385995.598 9925092.179 10 0 59281 58500.00000 0 23341699.633 7776754.026 6961632.915 10 0 59281 59400.00000 0 24000906.047 7943507.701 3863887.741 10 0 59281 60300.00000 0 24310033.267 7927481.035 691657.479 10 0 59281 61200.00000 0 24243812.944 7776669.230 -2493901.385 10 0 59281 62100.00000 0 23789142.360 7543585.966 -5631430.996 10 0 59281 63000.00000 0 22945704.442 7282834.400 -8660526.108 10 0 59281 63900.00000 0 21726079.719 7048601.759 -11522867.848 10 0 59281 64800.00000 0 20155345.857 6892180.604 -14163318.081 10 0 59281 65700.00000 0 18270180.678 6859618.474 -16530955.899 10 0 59281 66600.00000 0 16117504.222 6989592.521 -18580038.585 10 0 59281 67500.00000 0 13752713.615 7311596.814 -20270870.605 10 0 59281 68400.00000 0 11237580.686 7844517.806 -21570565.402 10 0 59281 69300.00000 0 8637895.949 8595658.165 -22453686.080 10 0 59281 70200.00000 0 6020953.003 9560251.611 -22902752.697 10 0 59281 71100.00000 0 3452974.320 10721491.927 -22908605.617 10 0 59281 72000.00000 0 996582.639 12051078.616 -22470616.222 10 0 59281 72900.00000 0 -1291578.808 13510260.721 -21596738.609 10 0 59281 73800.00000 0 -3362979.062 15051339.598 -20303398.232 10 0 59281 74700.00000 0 -5178995.902 16619571.861 -18615216.288 10 0 59281 75600.00000 0 -6712299.756 18155396.243 -16564571.654 10 0 59281 76500.00000 0 -7947765.115 19596893.343 -14191005.478 10 0 59281 77400.00000 0 -8882868.614 20882375.911 -11540477.107 10 0 59281 78300.00000 0 -9527554.548 21953000.366 -8664483.642 10 0 59281 79200.00000 0 -9903571.269 22755287.727 -5619058.976 10 0 59281 80100.00000 0 -10043304.975 23243444.714 -2463671.759 10 0 59281 81000.00000 0 -9988159.795 23381383.277 739955.271 10 0 59281 81900.00000 0 -9786553.541 23144349.202 3929079.571 10 0 59281 82800.00000 0 -9491616.031 22520087.049 7041199.630 10 0 59281 83700.00000 0 -9158690.654 21509488.933 10015314.301 10 0 59281 84600.00000 0 -8842748.940 20126697.483 12793152.376 10 0 59281 85500.00000 0 -8595831.910 18398657.663 15320344.660 10 0 59282 0.00000 0 -8464630.647 16364136.658 17547512.540 10 0 59282 900.00000 0 -8488312.410 14072254.311 19431249.530 10 0 59282 1800.00000 0 -8696685.646 11580588.993 20934974.553 10 0 59282 2700.00000 0 -9108784.895 8952940.448 22029640.473 10 0 59282 3600.00000 0 -9731933.237 6256846.923 22694284.192 10 0 59282 4500.00000 0 -10561322.244 3560962.874 22916409.082 10 0 59282 5400.00000 0 -11580124.380 932408.593 22692194.605 10 0 59282 6300.00000 0 -12760130.537 -1565797.010 22026531.777 10 0 59282 7200.00000 0 -14062882.798 -3877113.968 20932886.897 10 0 59282 8100.00000 0 -15441251.865 -5953572.037 19432999.317 10 0 59282 9000.00000 0 -16841390.410 -7757490.724 17556422.113 10 0 59282 9900.00000 0 -18204978.587 -9262760.851 15339917.210 10 0 59282 10800.00000 0 -19471666.711 -10455638.936 12826718.780 10 0 59282 11700.00000 0 -20581612.811 -11335026.099 10065680.635 10 0 59282 12600.00000 0 -21478009.852 -11912224.457 7110325.004 10 0 59282 13500.00000 0 -22109498.635 -12210185.273 4017811.131 10 0 59282 14400.00000 0 -22432367.818 -12262283.519 847843.086 10 0 59282 15300.00000 0 -22412451.690 -12110672.188 -2338463.286 10 0 59282 16200.00000 0 -22026648.962 -11804286.283 -5479734.107 10 0 59282 17100.00000 0 -21264001.336 -11396579.883 -8515491.889 10 0 59282 18000.00000 0 -20126288.348 -10943090.004 -11387290.697 10 0 59282 18900.00000 0 -18628114.325 -10498927.479 -14039812.841 10 0 59282 19800.00000 0 -16796483.359 -10116297.798 -16421908.583 10 0 59282 20700.00000 0 -14669878.570 -9842153.498 -18487561.152 10 0 59282 21600.00000 0 -12296881.430 -9716074.570 -20196760.578 10 0 59282 22500.00000 0 -9734385.177 -9768464.417 -21516271.047 10 0 59282 23400.00000 0 -7045472.757 -10019136.638 -22420277.797 10 0 59282 24300.00000 0 -4297043.237 -10476352.589 -22890901.216 10 0 59282 25200.00000 0 -1557281.310 -11136352.018 -22918567.469 10 0 59282 26100.00000 0 1106928.405 -11983399.333 -22502226.897 10 0 59282 27000.00000 0 3632537.480 -12990347.322 -21649413.653 10 0 59282 27900.00000 0 5962716.305 -14119698.915 -20376142.428 10 0 59282 28800.00000 0 8048984.344 -15325126.553 -18706640.905 10 0 59282 29700.00000 0 9852998.471 -16553389.193 -16672919.595 10 0 59282 30600.00000 0 11347922.981 -17746569.238 -14314183.989 10 0 59282 31500.00000 0 12519321.463 -18844536.958 -11676097.550 10 0 59282 32400.00000 0 13365530.500 -19787538.912 -8809907.626 10 0 59282 33300.00000 0 13897496.934 -20518800.052 -5771450.003 10 0 59282 34200.00000 0 14138083.524 -20987027.214 -2620051.364 10 0 59282 35100.00000 0 14120871.276 -21148704.756 582648.066 10 0 59282 36000.00000 0 13888509.111 -20970081.204 3773926.761 10 0 59282 36900.00000 0 13490682.027 -20428758.718 6891242.049 10 0 59282 37800.00000 0 12981786.298 -19514814.337 9873490.192 10 0 59282 38700.00000 0 12418413.602 -18231402.584 12662238.079 10 0 59282 39600.00000 0 11856754.646 -16594812.098 15202898.794 10 0 59282 40500.00000 0 11350036.354 -14633973.295 17445824.925 10 0 59282 41400.00000 0 10946104.828 -12389438.383 19347295.804 10 0 59282 42300.00000 0 10685259.296 -9911878.433 20870377.739 10 0 59282 43200.00000 0 10598430.468 -7260163.026 21985639.953 10 0 59282 44100.00000 0 10705780.782 -4499105.777 22671712.729 10 0 59282 45000.00000 0 11015784.926 -1696972.804 22915678.249 10 0 59282 45900.00000 0 11524827.496 1077139.606 22713288.745 10 0 59282 46800.00000 0 12217332.025 3755947.534 22069010.467 10 0 59282 47700.00000 0 13066412.638 6276531.814 20995895.672 10 0 59282 48600.00000 0 14035017.557 8582695.148 19515288.315 10 0 59282 49500.00000 0 15077513.230 10627028.228 17656372.107 10 0 59282 50400.00000 0 16141639.991 12372602.171 15455572.406 10 0 59282 51300.00000 0 17170755.430 13794221.047 12955825.661 10 0 59282 52200.00000 0 18106270.600 14879186.986 10205732.051 10 0 59282 53100.00000 0 18890177.128 15627550.521 7258608.627 10 0 59282 54000.00000 0 19467560.464 16051840.144 4171461.391 10 0 59282 54900.00000 0 19788995.837 16176285.950 1003895.615 10 0 59282 55800.00000 0 19812728.910 16035572.484 -2183015.637 10 0 59282 56700.00000 0 19506552.350 15673174.534 -5327884.682 10 0 59282 57600.00000 0 18849302.070 15139345.900 -8370164.013 10 0 59282 58500.00000 0 17831912.393 14488844.665 -11251282.811 10 0 59282 59400.00000 0 16457987.020 13778488.632 -13915745.933 10 0 59282 60300.00000 0 14743861.916 13064641.144 -16312176.799 10 0 59282 61200.00000 0 12718156.435 12400730.094 -18394286.464 10 0 59282 62100.00000 0 10420829.113 11834901.675 -20121752.290 10 0 59282 63000.00000 0 7901774.253 11407905.210 -21460990.877 10 0 59282 63900.00000 0 5219013.811 11151296.482 -22385811.172 10 0 59282 64800.00000 0 2436555.378 11086034.674 -22877935.348 10 0 59282 65700.00000 0 -377999.125 11221532.616 -22927376.666 10 0 59282 66600.00000 0 -3155998.634 11555202.200 -22532665.493 10 0 59282 67500.00000 0 -5830339.580 12072517.003 -21700916.796 10 0 59282 68400.00000 0 -8338008.342 12747593.112 -20447734.888 10 0 59282 69300.00000 0 -10622464.725 13544267.732 -18796953.900 10 0 59282 70200.00000 0 -12635767.058 14417633.974 -16780215.498 10 0 59282 71100.00000 0 -14340348.993 15315970.493 -14436388.619 10 0 59282 72000.00000 0 -15710371.448 16182986.860 -11810839.538 10 0 59282 72900.00000 0 -16732590.416 16960290.930 -8954564.209 10 0 59282 73800.00000 0 -17406701.387 17589973.582 -5923198.372 10 0 59282 74700.00000 0 -17745143.341 18017199.726 -2775924.553 10 0 59282 75600.00000 0 -17772368.873 18192692.945 425701.938 10 0 59282 76500.00000 0 -17523610.526 18075004.771 3618983.173 10 0 59282 77400.00000 0 -17043196.013 17632468.231 6741338.069 10 0 59282 78300.00000 0 -16382485.366 16844748.815 9731563.167 10 0 59282 79200.00000 0 -15597520.189 15703923.619 12531066.417 10 0 59282 80100.00000 0 -14746488.141 14215040.368 15085046.166 10 0 59282 81000.00000 0 -13887113.972 12396131.253 17343589.124 10 0 59282 81900.00000 0 -13074091.326 10277680.734 19262663.350 10 0 59282 82800.00000 0 -12356667.196 7901570.725 20804985.178 10 0 59282 83700.00000 0 -11776483.383 5319549.399 21940742.583 10 0 59282 84600.00000 0 -11365767.181 2591290.250 22648161.321 10 0 59282 85500.00000 0 -11145947.331 -217874.543 22913904.100 10 0 59283 0.00000 0 -11126752.006 -3039449.369 22733297.249 10 0 59283 900.00000 0 -11305824.485 -5804393.302 22110383.083 10 0 59283 1800.00000 0 -11668868.530 -8445751.002 21057800.235 10 0 59283 2700.00000 0 -12190314.910 -10901187.035 19596497.163 10 0 59283 3600.00000 0 -12834475.992 -13115320.359 17755287.649 10 0 59283 4500.00000 0 -13557137.500 -15041763.757 15570259.460 10 0 59283 5400.00000 0 -14307517.588 -16644787.391 13084049.871 10 0 59283 6300.00000 0 -15030509.466 -17900541.350 10345003.589 10 0 59283 7200.00000 0 -15669112.775 -18797790.698 7406230.320 10 0 59283 8100.00000 0 -16166952.096 -19338136.783 4324580.368 10 0 59283 9000.00000 0 -16470778.214 -19535719.456 1159557.511 10 0 59283 9900.00000 0 -16532849.169 -19416415.684 -2027810.868 10 0 59283 10800.00000 0 -16313093.588 -19016570.115 -5176126.349 10 0 59283 11700.00000 0 -15780967.962 -18381311.602 -8224774.618 10 0 59283 12600.00000 0 -14916932.096 -17562525.858 -11115063.291 10 0 59283 13500.00000 0 -13713482.333 -16616567.883 -13791323.129 10 0 59283 14400.00000 0 -12175699.785 -15601807.795 -16201954.037 10 0 59283 15300.00000 0 -10321290.048 -14576110.297 -18300398.079 10 0 59283 16200.00000 0 -8180110.959 -13594350.542 -20046022.889 10 0 59283 17100.00000 0 -5793205.179 -12706067.917 -21404900.055 10 0 59283 18000.00000 0 -3211374.197 -11953354.028 -22350464.360 10 0 59283 18900.00000 0 -493348.692 -11369062.244 -22864041.358 10 0 59283 19800.00000 0 2296373.318 -10975413.733 -22935232.460 10 0 59283 20700.00000 0 5089935.037 -10783059.476 -22562148.554 10 0 59283 21600.00000 0 7818680.002 -10790639.673 -21751485.403 10 0 59283 22500.00000 0 10415758.328 -10984861.975 -20518436.432 10 0 59283 23400.00000 0 12818673.372 -11341098.748 -18886441.252 10 0 59283 24300.00000 0 14971663.326 -11824481.833 -16886771.273 10 0 59283 25200.00000 0 16827817.643 -12391452.022 -14557957.021 10 0 59283 26100.00000 0 18350837.975 -12991700.501 -11945065.288 10 0 59283 27000.00000 0 19516367.307 -13570421.787 -9098837.909 10 0 59283 27900.00000 0 20312828.568 -14070783.157 -6074707.466 10 0 59283 28800.00000 0 20741734.481 -14436504.903 -2931708.877 10 0 59283 29700.00000 0 20817453.257 -14614439.670 268691.134 10 0 59283 30600.00000 0 20566438.512 -14557038.126 3463822.019 10 0 59283 31500.00000 0 20025955.578 -14224592.309 6591068.019 10 0 59283 32400.00000 0 19242359.018 -13587157.286 9589129.506 10 0 59283 33300.00000 0 18268996.309 -12626065.672 12399258.741 10 0 59283 34200.00000 0 17163829.493 -11334967.641 14966442.184 10 0 59283 35100.00000 0 15986879.091 -9720350.202 17240503.053 10 0 59283 36000.00000 0 14797602.162 -7801512.738 19177100.018 10 0 59283 36900.00000 0 13652318.820 -5610000.099 20738600.814 10 0 59283 37800.00000 0 12601798.549 -3188518.345 21894813.042 10 0 59283 38700.00000 0 11689109.718 -589380.696 22623558.316 10 0 59283 39600.00000 0 10947823.240 2127448.613 22911079.813 10 0 59283 40500.00000 0 10400644.913 4896628.288 22752277.445 10 0 59283 41400.00000 0 10058531.697 7649934.694 22150768.790 10 0 59283 42300.00000 0 9920325.788 10318871.881 21118777.641 10 0 59283 43200.00000 0 9972917.962 12837287.847 19676855.533 10 0 59283 44100.00000 0 10191929.176 15143888.951 17853444.648 10 0 59283 45000.00000 0 10542877.860 17184549.626 15684293.320 10 0 59283 45900.00000 0 10982780.492 18914324.276 13211737.666 10 0 59283 46800.00000 0 11462115.681 20299081.269 10483864.822 10 0 59283 47700.00000 0 11927067.760 21316695.080 7553574.951 10 0 59283 48600.00000 0 12321955.248 21957751.163 4477560.377 10 0 59283 49500.00000 0 12591742.761 22225738.118 1315221.064 10 0 59283 50400.00000 0 12684532.385 22136722.446 -1872463.639 10 0 59283 51300.00000 0 12553931.914 21718521.938 -5024086.882 10 0 59283 52200.00000 0 12161202.873 21009413.626 -8078969.776 10 0 59283 53100.00000 0 11477100.402 20056430.508 -10978300.472 10 0 59283 54000.00000 0 10483329.605 18913317.425 -13666237.571 10 0 59283 54900.00000 0 9173558.262 17638229.716 -16090959.231 10 0 59283 55800.00000 0 7553943.504 16291268.428 -18205640.122 10 0 59283 56700.00000 0 5643149.182 14931952.235 -19969339.601 10 0 59283 57600.00000 0 3471850.788 13616728.912 -21347785.568 10 0 59283 58500.00000 0 1081745.224 12396627.897 -22314039.836 10 0 59283 59400.00000 0 -1475897.576 11315150.261 -22849032.407 10 0 59283 60300.00000 0 -4142085.586 10406483.375 -22941953.729 10 0 59283 61200.00000 0 -6852285.829 9694115.193 -22590495.874 10 0 59283 62100.00000 0 -9538849.394 9189907.327 -21800935.759 10 0 59283 63000.00000 0 -12133583.082 8893667.944 -20588055.922 10 0 59283 63900.00000 0 -14570363.055 8793245.320 -18974901.058 10 0 59283 64800.00000 0 -16787682.912 8865141.325 -16992371.531 10 0 59283 65700.00000 0 -18731029.760 9075622.261 -14678658.289 10 0 59283 66600.00000 0 -20354987.586 9382282.967 -12078527.163 10 0 59283 67500.00000 0 -21624977.533 9736000.076 -9242464.127 10 0 59283 68400.00000 0 -22518559.072 10083192.600 -6225696.646 10 0 59283 69300.00000 0 -23026234.132 10368293.610 -3087109.912 10 0 59283 70200.00000 0 -23151717.387 10536326.431 111920.205 10 0 59283 71100.00000 0 -22911659.082 10535473.076 3308752.936 10 0 59283 72000.00000 0 -22334830.831 10319522.137 6440740.383 10 0 59283 72900.00000 0 -21460808.867 9850088.006 9446489.401 10 0 59283 73800.00000 0 -20338211.705 9098503.066 12267099.296 10 0 59283 74700.00000 0 -19022569.140 8047298.928 14847347.403 10 0 59283 75600.00000 0 -17573915.954 6691211.144 17136796.149 10 0 59283 76500.00000 0 -16054215.605 5037663.123 19090797.397 10 0 59283 77400.00000 0 -14524726.279 3106708.329 20671372.621 10 0 59283 78300.00000 0 -13043423.439 930433.819 21847951.093 10 0 59283 79200.00000 0 -11662589.525 -1448148.266 22597951.974 10 0 59283 80100.00000 0 -10426673.175 -3976672.458 22907200.191 10 0 59283 81000.00000 0 -9370507.474 -6595386.660 22770170.131 10 0 59283 81900.00000 0 -8517960.220 -9239429.281 22190055.076 10 0 59283 82800.00000 0 -7881069.920 -11841319.821 21178664.064 10 0 59283 83700.00000 0 -7459699.874 -14333558.087 19756151.374 10 0 59283 84600.00000 0 -7241720.502 -16651223.806 17950586.905 10 0 59283 85500.00000 0 -7203707.859 -18734469.385 15797378.535 99